Volver al catálogo

SHIYAN 20C

SY-20C

ActivoCienciaLEO
NORAD 54214·PAYLOAD·🇨🇳 China

Lanzado Oct 29, 2022 desde Jiuquan Satellite Launch Center

Loading…

Próximos Pases (próximas 24 horas)

TLE

ActualizadoSource: Space-Track

Época: Sep 14, 2026, 21:44 UTC

1 54214U 22142A   26257.90624475 -.00000017  00000-0  46483-4 0  9994
2 54214  59.9984   3.8204 0021594  40.9604 319.3049 14.29573947202524

Sigue SHIYAN 20C en tiempo real con AllMySat

Download on the App Store